Flag for Moldova Weather past 2 weeks in Bălți, Moldova

Now
68 °F

Mild.


Feels Like: 68 °F
Forecast: 59 / 83 °F
Wind: 6 mph from North

Location: Baltsi-Leadoveni - The North of Moldova

Current Time: May 26, 2015 at 1:18:52 AM

Latest Report: May 26, 2015 at 12:00 AM


Visibility: N/A

Pressure: 29.77 "Hg

Humidity: 64%

Dew point: 55 °F

Location of BălțiLocation

Historic Weather in Bălți — Graph

°F

Bălți temperature yesterday

Maximum temperature yesterday: 84 °F (at 3:00 PM)
Minimum temperature yesterday: 63 °F (at 5:00 AM)
Average temperature yesterday: 74 °F

Past Weeks' High & Low Weather Summary

 TemperatureHumidityPressure
High86 °F (May 24, 4:00 PM)100% (May 14, 7:00 AM)30.30 "Hg (May 14, 7:00 AM)
Low48 °F (May 15, 4:30 AM)26% (May 22, 2:30 PM)29.59 "Hg (May 14, 6:30 PM)
Average66 °F55%29.99 "Hg
* Reported Midnight between May 10 and May 11 — Midnight between May 25 and May 26, Bălți, Weather by CustomWeather, © 2015

Note: Actual official high and low records may vary slightly from our data, if they occured in-between our weather recording intervals... More about our weather records

Advertising

Bălți weather history for previous 24 hours

 ConditionsComfort  
Time TempWeatherWind HumidityBarometerVisibility
12:00 AM
Tue, May 26
68 °FMild.6 mph64%29.77 "HgN/A
11:00 PM
Mon, May 25
75 °FMild.No wind54%29.77 "HgN/A
10:00 PM75 °FMild.2 mph50%29.77 "HgN/A
9:00 PM75 °FMild.3 mph54%29.77 "HgN/A
8:00 PM77 °FWarm.2 mph54%29.77 "HgN/A
7:30 PM77 °FWarm.7 mph54%29.77 "HgN/A
7:00 PM79 °FWarm.6 mph51%29.77 "HgN/A
6:00 PM81 °FScattered clouds.9 mph48%29.77 "HgN/A
5:30 PM82 °FPartly sunny.12 mph37%29.77 "HgN/A
5:00 PM84 °FPartly sunny.10 mph35%29.80 "HgN/A
4:30 PM84 °FPartly sunny.13 mph35%29.80 "HgN/A
4:00 PM82 °FPartly sunny.12 mph37%29.80 "HgN/A
3:00 PM84 °FPartly sunny.10 mph37%29.83 "HgN/A
2:30 PM82 °FPartly sunny.10 mph37%29.83 "HgN/A
2:00 PM82 °FPartly sunny.8 mph42%29.83 "HgN/A
1:30 PM82 °FPartly sunny.9 mph40%29.86 "HgN/A
1:00 PM82 °FScattered clouds.7 mph45%29.86 "HgN/A
12:30 PM81 °FPassing clouds.8 mph48%29.86 "HgN/A
12:00 PM81 °FPassing clouds.7 mph51%29.86 "HgN/A
11:00 AM77 °FPassing clouds.5 mph54%29.89 "HgN/A
10:00 AM75 °FPassing clouds.6 mph57%29.89 "HgN/A
9:00 AM70 °FPassing clouds.8 mph69%29.89 "HgN/A
8:00 AM68 °FMild.9 mph73%29.86 "HgN/A
7:00 AM64 °FMild.10 mph78%29.89 "HgN/A
6:30 AM63 °FMild.10 mph83%29.86 "HgN/A
6:00 AM63 °FMild.8 mph83%29.89 "HgN/A
5:00 AM63 °FMild.10 mph83%29.86 "HgN/A
4:00 AM64 °FMild.9 mph78%29.86 "HgN/A
3:30 AM64 °FMild.8 mph78%29.89 "HgN/A
3:00 AM66 °FMild.9 mph73%29.89 "HgN/A
2:30 AM68 °FMild.14 mph69%29.86 "HgN/A
2:00 AM68 °FMild.12 mph69%29.86 "HgN/A
1:00 AM68 °FMild.9 mph69%29.89 "HgN/A
Weather by CustomWeather, © 2015

See weather overviewHow to use our weather pages